Regional Weather Roundup
Issued by NWS

Home | Current Version | Previous Version | Text Only | Print | Product List | Glossary On
Versions: 1 2 3 4 5 6 7 8 9 10 11 12 13 14 15 16 17 18 19 20 21 22 23 24 25 26 27 28 29 30 31 32 33 34 35 36 37 38 39 40 41 42 43 44 45 46 47 48 49 50
000
ASUS45 KREV 261010
RWRNV
NEVADA REGIONAL WEATHER ROUNDUP
NATIONAL WEATHER SERVICE RENO NV
300 AM PDT SUN APR 26 2015

NOTE: "FAIR" INDICATES FEW OR NO CLOUDS BELOW 12,000 FEET WITH NO
SIGNIFICANT WEATHER AND/OR OBSTRUCTIONS TO VISIBILITY.

NVZ001-003-004-261100-
WESTERN NEVADA

CITY           SKY/WX    TMP DP  RH WIND       PRES   REMARKS
RENO           PTCLDY    44  32  62 NW10      30.04R
CARSON CITY    MOCLDY    37  32  81 CALM      30.04R
MINDEN         FAIR      32  30  93 E6        30.05
PYRAMID LAKE     N/A     48 N/A N/A NW2         N/A
FALLON         MOCLDY    41  35  79 W3        30.00R
LOVELOCK       PTCLDY    33  31  92 CALM      30.01R
HAWTHORNE      MOCLDY    45  28  53 CALM      30.01R
$$

NVZ002-CAZ072-073-261100-
NORTHERN AND CENTRAL SIERRA

CITY           SKY/WX    TMP DP  RH WIND       PRES   REMARKS
S. LAKE TAHOE  CLEAR     32  27  81 CALM      30.04R
TRUCKEE        CLEAR     28  27  93 CALM      30.06S
SQUAW VLY 8000   N/A     27  28 100 NW7         N/A
SUSANVILLE     CLOUDY   N/A N/A N/A NW5         N/A
BLUE CANYON    CLEAR     39  30  70 NE5       30.06R
MAMMOTH LAKES  MOCLDY    30  23  74 W6        30.03S
BRIDGEPORT     MOCLDY    29  22  75 CALM      30.02R
$$

NVZ030-031-036-261100-
NORTHERN NEVADA

CITY           SKY/WX    TMP DP  RH WIND       PRES   REMARKS
ELKO           MOCLDY    35  27  72 SW5       29.94R
WINNEMUCCA     CLOUDY    34  33  96 CALM      30.02R
WENDOVER       PTCLDY    41  27  56 NW15G23   29.85R
$$

NVZ035-037-261100-
CENTRAL NEVADA

CITY           SKY/WX    TMP DP  RH WIND       PRES   REMARKS
ELY            MOCLDY    33  29  85 NW8       29.89R
EUREKA           N/A     33  30  88 SW6       29.93F
$$

NVZ013-014-261100-
SOUTH CENTRAL NEVADA

CITY           SKY/WX    TMP DP  RH WIND       PRES   REMARKS
TONOPAH        CLEAR     36  23  59 N8        29.95S
$$

NVZ017-020-022-261100-
SOUTHERN NEVADA

CITY           SKY/WX    TMP DP  RH WIND       PRES   REMARKS
LAS VEGAS      PTCLDY    57  35  43 NW13      29.76S
N. LAS VEGAS   CLEAR     56  33  42 N16       29.79S
NELLIS AFB     CLEAR     52  50  92 N5        29.79S
HENDERSON      CLEAR     50  43  77 S6        29.83R
MERCURY        PTCLDY    43  34  70 N5        29.87R
$$



USA.gov is the U.S. government's official web portal to all federal, state and local government web resources and services.